Location: Unspecified
(43.3830°N, 0.0000°E)
Time: 07:54:03
(UTC+00:00)

Courier 1B Rocket - Visible Passes

Search period start: 26 June 2019 00:00
Search period end: 06 July 2019 00:00
Orbit: 920 x 1202 km, 28.2° (Epoch: 25 June)

Date Brightness Start Highest point End Pass type
(mag) Time Alt. Az. Time Alt. Az. Time Alt. Az.
26 Jun 7.0 01:43:35 13° SSE 01:43:35 13° SSE 01:45:49 10° SE visible
26 Jun 6.5 03:30:10 10° SW 03:35:18 21° S 03:40:12 10° SE visible
27 Jun 6.6 02:32:21 17° S 02:34:29 19° SSE 02:39:15 10° SE visible
28 Jun 6.8 01:34:48 16° SSE 01:34:48 16° SSE 01:38:03 10° SE visible
28 Jun 6.4 03:21:08 11° SW 03:26:14 23° S 03:31:27 10° SE visible
29 Jun 6.4 02:23:35 20° SSW 02:25:23 22° S 02:30:40 10° SE visible
30 Jun 6.6 01:26:04 19° SSE 01:26:04 19° SSE 01:29:41 10° ESE visible
30 Jun 6.4 03:12:25 13° SW 03:17:08 24° S 03:22:31 10° SE visible
01 Jul 6.3 02:14:58 23° SSW 02:16:16 24° S 02:21:51 10° SE visible
02 Jul 6.6 01:17:35 21° SSE 01:17:35 21° SSE 01:21:00 10° SE visible
02 Jul 6.4 03:03:56 15° SW 03:08:01 23° S 03:13:23 10° SE visible
03 Jul 6.3 02:06:40 24° S 02:07:08 25° S 02:12:51 10° SE visible
04 Jul 6.8 01:09:34 19° SE 01:09:34 19° SE 01:12:06 10° SE visible
04 Jul 6.4 02:55:57 17° SW 02:58:51 21° SSW 03:04:01 10° SSE visible
05 Jul 6.4 01:59:04 23° S 01:59:04 23° S 02:03:40 10° SE visible
05 Jul 6.8 03:46:55 10° SW 03:50:26 14° SSW 03:53:53 10° S visible
